Flag Weather past 2 weeks in Hiroshima, Japan

Now
51 °F

Passing clouds.


Feels Like: 48 °F
Forecast: 44 / 62 °F
Wind: 8 mph from Northwest

Location: Iwakuni Marine Corps Air Station

Current Time: Nov 27, 2014 at 12:38:32 AM

Latest Report: Nov 26, 2014 at 11:55 PM


Visibility: N/A

Pressure: 30.10 "Hg

Humidity: 83%

Dew point: 46 °F

Location of HiroshimaLocation

Historic Weather in Hiroshima — Graph

°F

Hiroshima temperature yesterday

Maximum temperature yesterday: 63 °F (at 10:55 AM)
Minimum temperature yesterday: 51 °F (at 10:55 PM)
Average temperature yesterday: 57 °F

Past Weeks' High & Low Weather Summary

 TemperatureHumidityPressure
High67 °F (Nov 12, 1:55 PM)93% (Nov 25, 6:55 AM)30.37 "Hg (Nov 25, 6:55 AM)
Low42 °F (Nov 13, 10:55 PM)27% (Nov 15, 2:55 PM)29.80 "Hg (Nov 12, 1:55 PM)
Average54 °F64%30.15 "Hg
* Reported Nov 11 10:55 PM — Nov 26 10:55 PM, Hiroshima, Weather by CustomWeather, © 2014

Note: Actual official high and low records may vary slightly from our data, if they occured in-between our weather recording intervals... More about our weather records

Advertising

Hiroshima weather history for previous 24 hours

 ConditionsComfort  
Time TempWeatherWind HumidityBarometerVisibility
10:55 PM
Nov 26
51 °FPassing clouds.6 mph83%30.09 "HgN/A
9:55 PM53 °FPassing clouds.7 mph80%30.08 "HgN/A
8:55 PM54 °FPassing clouds.6 mph80%30.05 "HgN/A
7:55 PM55 °FPartly cloudy.7 mph80%30.03 "HgN/A
6:55 PM57 °FPassing clouds.5 mph81%30.01 "HgN/A
5:55 PM57 °FPassing clouds.5 mph83%29.99 "HgN/A
4:55 PM58 °FSprinkles. Partly sunny.3 mph81%29.96 "HgN/A
3:55 PM59 °FSprinkles. Partly sunny.No wind78%29.94 "HgN/A
2:55 PM59 °FSprinkles. Mostly cloudy.5 mph78%29.93 "HgN/A
1:55 PM61 °FSprinkles. Mostly cloudy.No wind62%29.91 "HgN/A
1:02 PM63 °FSprinkles. Mostly cloudy.5 mph56%29.90 "HgN/A
11:55 AM62 °FBroken clouds.5 mph60%29.92 "HgN/A
10:55 AM63 °FPartly sunny.8 mph60%29.93 "HgN/A
9:55 AM61 °FPartly sunny.7 mph62%29.94 "HgN/A
8:55 AM58 °FBroken clouds.3 mph70%29.94 "HgN/A
7:55 AM55 °FBroken clouds.6 mph74%29.93 "HgN/A
6:55 AM54 °FPartly sunny.6 mph77%29.91 "HgN/A
5:55 AM55 °FPassing clouds.6 mph77%29.90 "HgN/A
4:55 AM55 °FPassing clouds.6 mph77%29.89 "HgN/A
3:55 AM55 °FMostly cloudy.6 mph77%29.89 "HgN/A
2:55 AM56 °FOvercast.6 mph75%29.89 "HgN/A
1:55 AM56 °FOvercast.6 mph75%29.89 "HgN/A
12:55 AM56 °FOvercast.7 mph75%29.90 "HgN/A
Weather by CustomWeather, © 2014

See weather overviewHow to use our weather pages